Simultaneous Nadir Overpasses (SNOs) Predictions

Prediction of SNOs between GOES-17 and NOAA-19 Satellite Orbit:

Table of predicted SNOs for the next 14.0 days since TLE Epoch: 2/12/2022
Index Date Time (GOES-17) GOES-17 Lat,Lon NOAA-19 Lat,Lon Distance(km) Time Diff (sec)
1 02/12/2022 04:29:34 0.01,-137.20 0.47,-135.11 237.34 7
2 02/14/2022 16:51:38 0.01,-137.19 0.69,-139.99 320.46 80
3 02/15/2022 16:37:11 0.02,-137.18 -0.00,-137.12 7.62 80
4 02/16/2022 16:28:02 0.02,-137.17 -0.64,-134.23 335.23 80
5 02/19/2022 04:48:51 -0.02,-137.13 -0.48,-139.16 231.43 80
6 02/20/2022 04:34:24 -0.02,-137.12 0.20,-136.29 95.71 80
7 02/21/2022 04:22:35 -0.02,-137.10 0.82,-133.40 422.53 80
8 02/22/2022 16:54:59 0.02,-137.09 0.99,-141.15 464.69 80
9 02/23/2022 16:43:11 0.02,-137.06 0.29,-138.28 138.29 80
10 02/24/2022 16:34:03 0.01,-137.04 -0.35,-135.39 187.85 80
